Location: Newark
(34.6000°N, 98.3833°W)
Time: 05:11:39
(UTC+00:00)

Envisat - Visible Passes

Search period start: 19 October 2019 00:00
Search period end: 29 October 2019 00:00
Orbit: 764 x 766 km, 98.1° (Epoch: 18 October)

Date Brightness Start Highest point End Pass type
(mag) Time Alt. Az. Time Alt. Az. Time Alt. Az.
19 Oct 4.6 01:23:25 10° SSW 01:28:02 35° W 01:32:41 10° NNW visible
20 Oct 3.0 00:46:08 10° SSE 00:51:12 86° W 00:56:19 10° NNW visible
21 Oct 3.4 00:09:52 10° SE 00:14:34 40° ENE 00:19:17 10° N visible
21 Oct 5.6 01:50:05 10° SW 01:53:41 19° W 01:57:17 10° NW visible
22 Oct 4.1 01:11:53 10° S 01:16:43 46° W 01:21:36 10° NNW visible
23 Oct 2.9 00:34:55 10° SSE 00:39:57 74° ENE 00:45:02 10° N visible
24 Oct 5.2 01:38:13 10° SSW 01:42:20 25° W 01:46:30 10° NW visible
24 Oct 6.4 12:12:42 10° ENE 12:15:17 14° E 12:17:52 10° ESE visible
25 Oct 3.6 01:00:27 10° S 01:05:26 60° W 01:10:28 10° NNW visible
26 Oct 3.1 00:23:46 10° SSE 00:28:43 57° ENE 00:33:42 10° N visible
26 Oct 6.1 02:05:39 10° WSW 02:08:03 13° W 02:10:27 10° WNW visible
27 Oct 4.8 01:26:31 10° SSW 01:31:01 32° W 01:35:33 10° NW visible
27 Oct 6.7 12:03:09 10° E 12:03:54 10° E 12:04:40 10° E visible
28 Oct 3.1 00:49:06 10° S 00:54:10 78° WSW 00:59:16 10° NNW visible
